TimePST,TemperatureF,Dew PointF,Humidity,Sea Level PressureIn,VisibilityMPH,Wind Direction,Wind SpeedMPH,Gust SpeedMPH,PrecipitationIn,Events,Conditions,WindDirDegrees,DateUTC
12:04 AM,41.0,39.2,93,30.08,4.0,SE,4.6,-,0.00,Rain,Light Rain,130,2012-11-12 08:04:00
12:20 AM,41.0,39.2,93,30.08,5.0,ESE,6.9,-,0.01,Rain,Light Rain,120,2012-11-12 08:20:00
12:32 AM,42.8,39.2,87,30.08,4.0,Variable,5.8,-,0.01,,Overcast,0,2012-11-12 08:32:00
12:41 AM,42.8,39.2,87,30.08,4.0,Variable,6.9,-,N/A,,Overcast,0,2012-11-12 08:41:00
12:53 AM,42.1,39.0,89,30.09,4.0,ESE,8.1,-,0.01,,Overcast,110,2012-11-12 08:53:00
1:53 AM,42.1,39.9,92,30.09,5.0,SSE,11.5,20.7,N/A,,Overcast,150,2012-11-12 09:53:00
2:53 AM,43.0,41.0,93,30.08,8.0,Variable,6.9,-,N/A,,Overcast,0,2012-11-12 10:53:00
3:20 AM,42.8,39.2,87,30.07,1.8,ESE,9.2,-,N/A,,Overcast,120,2012-11-12 11:20:00
3:35 AM,42.8,41.0,93,30.07,3.0,SSE,11.5,19.6,N/A,,Overcast,150,2012-11-12 11:35:00
3:53 AM,44.1,42.1,93,30.08,9.0,Variable,5.8,16.1,N/A,,Overcast,0,2012-11-12 11:53:00
4:46 AM,44.6,42.8,93,30.07,10.0,SSE,12.7,-,N/A,,Overcast,160,2012-11-12 12:46:00
4:53 AM,45.0,42.1,90,30.08,10.0,SSE,10.4,-,N/A,,Overcast,160,2012-11-12 12:53:00
5:10 AM,44.6,42.8,93,30.08,10.0,SSE,9.2,-,N/A,,Overcast,150,2012-11-12 13:10:00
5:43 AM,44.6,42.8,93,30.08,10.0,Variable,6.9,-,N/A,,Overcast,0,2012-11-12 13:43:00
5:53 AM,44.1,41.0,89,30.09,10.0,SSE,6.9,-,N/A,,Overcast,150,2012-11-12 13:53:00
6:04 AM,44.6,41.0,87,30.08,10.0,SSE,10.4,-,N/A,,Overcast,150,2012-11-12 14:04:00
6:53 AM,45.0,42.1,90,30.10,5.0,SE,4.6,-,N/A,,Overcast,140,2012-11-12 14:53:00
7:20 AM,42.8,39.2,87,30.10,3.0,ESE,5.8,-,N/A,,Overcast,120,2012-11-12 15:20:00
7:33 AM,42.8,39.2,87,30.10,2.5,Calm,Calm,-,N/A,,Overcast,0,2012-11-12 15:33:00
7:53 AM,43.0,39.9,89,30.12,3.0,SSE,5.8,-,N/A,,Overcast,150,2012-11-12 15:53:00
8:04 AM,42.8,41.0,93,30.11,2.0,SSE,8.1,-,N/A,,Overcast,150,2012-11-12 16:04:00
8:15 AM,42.8,41.0,93,30.11,1.8,SE,4.6,-,N/A,,Overcast,130,2012-11-12 16:15:00
8:33 AM,42.8,41.0,93,30.11,2.0,Variable,3.5,-,N/A,,Overcast,0,2012-11-12 16:33:00
8:53 AM,43.0,41.0,93,30.13,2.0,Variable,3.5,-,N/A,,Overcast,0,2012-11-12 16:53:00
9:00 AM,42.8,41.0,93,30.12,1.0,Variable,4.6,-,N/A,,Overcast,0,2012-11-12 17:00:00
9:53 AM,43.0,41.0,93,30.14,1.0,ESE,8.1,-,0.01,,Overcast,110,2012-11-12 17:53:00
10:53 AM,45.0,42.1,90,30.15,1.0,ESE,5.8,-,N/A,,Overcast,120,2012-11-12 18:53:00
11:53 AM,45.0,43.0,93,30.15,1.2,Variable,3.5,-,0.00,Rain,Light Rain,0,2012-11-12 19:53:00
12:53 PM,46.0,44.1,93,30.16,1.5,SSE,5.8,-,0.03,Rain,Light Rain,160,2012-11-12 20:53:00
1:53 PM,46.9,44.1,90,30.17,2.0,SSE,4.6,-,0.01,,Overcast,150,2012-11-12 21:53:00
2:53 PM,46.9,45.0,93,30.16,1.0,Calm,Calm,-,N/A,,Overcast,0,2012-11-12 22:53:00
3:53 PM,48.0,45.0,89,30.17,2.0,SSE,4.6,-,N/A,,Overcast,160,2012-11-12 23:53:00
4:00 PM,48.2,44.6,87,30.16,8.0,Calm,Calm,-,N/A,,Overcast,0,2012-11-13 00:00:00
4:11 PM,48.2,46.4,93,30.16,7.0,Variable,3.5,-,N/A,,Overcast,0,2012-11-13 00:11:00
4:53 PM,48.0,46.0,93,30.17,8.0,SSE,4.6,-,N/A,,Overcast,150,2012-11-13 00:53:00
4:57 PM,48.2,46.4,93,30.16,9.0,Variable,3.5,-,N/A,,Overcast,0,2012-11-13 00:57:00
5:37 PM,46.4,44.6,93,30.16,10.0,Variable,4.6,-,N/A,,Overcast,0,2012-11-13 01:37:00
5:53 PM,46.9,45.0,93,30.18,10.0,Variable,3.5,-,N/A,,Overcast,0,2012-11-13 01:53:00
6:33 PM,46.4,44.6,93,30.17,10.0,SE,3.5,-,N/A,,Overcast,130,2012-11-13 02:33:00
6:53 PM,48.0,45.0,89,30.18,10.0,SE,3.5,-,N/A,,Overcast,140,2012-11-13 02:53:00
7:22 PM,48.2,44.6,87,30.17,10.0,SSE,8.1,-,N/A,,Overcast,160,2012-11-13 03:22:00
7:53 PM,48.0,45.0,89,30.19,10.0,SSE,9.2,-,N/A,,Overcast,160,2012-11-13 03:53:00
8:53 PM,48.0,46.0,93,30.19,10.0,South,9.2,-,N/A,,Overcast,170,2012-11-13 04:53:00
9:00 PM,48.2,46.4,93,30.17,10.0,South,9.2,-,N/A,,Mostly Cloudy,170,2012-11-13 05:00:00
9:53 PM,48.9,46.0,90,30.19,10.0,South,8.1,-,N/A,,Overcast,170,2012-11-13 05:53:00
10:53 PM,48.9,46.0,90,30.20,10.0,South,11.5,17.3,N/A,,Overcast,170,2012-11-13 06:53:00
11:53 PM,48.9,46.0,90,30.21,10.0,South,12.7,17.3,N/A,,Overcast,180,2012-11-13 07:53:00